When you browse on this site, cookies collect data to enhance your experience and personalize the content and advertising you see.
Visit our Privacy Policy to learn more. By continuing to use the site, you agree to this use of cookies and data.
  • In Schweiz
  • Länderverzeichnis
  • Für 7 Tage
  • Wassertemperatur
  • Wetterkarte
  • Widgets
  • user-avatar
    Anmelden

    Stündliche Wetter Losenets

    Heute, 16 Oktober, Mittwoch

    Zeit Temperatur Niederschläge Wind Luftdruck Luftfeuchtigkeit
    00:00 +15°C° 0 mm 1 m/S 760 mmHg 93%
    01:00 +15°C° 0 mm 1 m/S 760 mmHg 92%
    02:00 +14°C° 0 mm 0 m/S 760 mmHg 91%
    03:00 +13°C° 0 mm 0 m/S 760 mmHg 91%
    04:00 +13°C° 0 mm 0 m/S 760 mmHg 91%
    05:00 +14°C° 0 mm 1 m/S 760 mmHg 91%
    06:00 +15°C° 0 mm 1 m/S 760 mmHg 89%
    07:00 +16°C° 0 mm 1 m/S 760 mmHg 87%
    08:00 +16°C° 0 mm 1 m/S 761 mmHg 85%
    09:00 +19°C° 0 mm 1 m/S 761 mmHg 79%
    10:00 +20°C° 0 mm 1 m/S 760 mmHg 73%
    11:00 +21°C° 0 mm 2 m/S 760 mmHg 66%
    12:00 +21°C° 0 mm 2 m/S 760 mmHg 65%
    13:00 +23°C° 0 mm 2 m/S 760 mmHg 64%
    14:00 +23°C° 0 mm 2 m/S 760 mmHg 63%
    15:00 +21°C° 0 mm 2 m/S 759 mmHg 71%
    16:00 +19°C° 0 mm 2 m/S 759 mmHg 78%
    17:00 +18°C° 0 mm 2 m/S 759 mmHg 85%
    18:00 +17°C° 0 mm 2 m/S 759 mmHg 88%
    19:00 +16°C° 0 mm 1 m/S 759 mmHg 91%
    20:00 +15°C° 0 mm 1 m/S 760 mmHg 93%
    21:00 +15°C° 0 mm 1 m/S 760 mmHg 93%
    22:00 +15°C° 0 mm 1 m/S 760 mmHg 93%
    23:00 +15°C° 0 mm 1 m/S 760 mmHg 93%

    Morgen, 17 Oktober, Donnerstag

    Zeit Temperatur Niederschläge Wind Luftdruck Luftfeuchtigkeit
    00:00 +15°C° 0 mm 1 m/S 760 mmHg 93%
    01:00 +15°C° 0 mm 1 m/S 760 mmHg 93%
    02:00 +15°C° 0 mm 1 m/S 760 mmHg 93%
    03:00 +14°C° 0 mm 1 m/S 760 mmHg 94%
    04:00 +14°C° 0 mm 1 m/S 760 mmHg 94%
    05:00 +14°C° 0 mm 1 m/S 760 mmHg 95%
    06:00 +15°C° 0 mm 1 m/S 760 mmHg 93%
    07:00 +16°C° 0 mm 1 m/S 760 mmHg 90%
    08:00 +18°C° 0 mm 1 m/S 760 mmHg 88%
    09:00 +19°C° 0 mm 1 m/S 760 mmHg 80%
    10:00 +20°C° 0 mm 2 m/S 760 mmHg 71%
    11:00 +23°C° 0 mm 2 m/S 761 mmHg 62%
    12:00 +23°C° 0 mm 2 m/S 760 mmHg 60%
    13:00 +23°C° 0 mm 2 m/S 760 mmHg 58%
    14:00 +24°C° 0 mm 2 m/S 760 mmHg 56%
    15:00 +21°C° 0 mm 2 m/S 760 mmHg 63%
    16:00 +20°C° 0 mm 2 m/S 760 mmHg 70%
    17:00 +20°C° 0 mm 1 m/S 760 mmHg 77%
    18:00 +19°C° 0 mm 1 m/S 760 mmHg 80%
    19:00 +18°C° 0 mm 1 m/S 760 mmHg 83%
    20:00 +16°C° 0 mm 1 m/S 760 mmHg 86%
    21:00 +16°C° 0 mm 1 m/S 760 mmHg 84%
    22:00 +14°C° 0 mm 0 m/S 760 mmHg 82%
    23:00 +14°C° 0 mm 0 m/S 761 mmHg 81%

    übermorgen, 18 Oktober, Freitag

    Zeit Temperatur Niederschläge Wind Luftdruck Luftfeuchtigkeit
    00:00 +15°C° 0 mm 1 m/S 760 mmHg 81%
    01:00 +15°C° 0 mm 1 m/S 760 mmHg 81%
    02:00 +15°C° 0 mm 1 m/S 760 mmHg 80%
    03:00 +14°C° 0.1 mm 1 m/S 760 mmHg 81%
    04:00 +14°C° 0.1 mm 1 m/S 760 mmHg 81%
    05:00 +14°C° 0.1 mm 1 m/S 760 mmHg 81%
    06:00 +15°C° 0.1 mm 1 m/S 760 mmHg 78%
    07:00 +16°C° 0.1 mm 1 m/S 761 mmHg 75%
    08:00 +18°C° 0.1 mm 1 m/S 761 mmHg 73%
    09:00 +20°C° 0 mm 1 m/S 761 mmHg 67%
    10:00 +21°C° 0 mm 1 m/S 761 mmHg 62%
    11:00 +23°C° 0 mm 1 m/S 761 mmHg 56%
    12:00 +23°C° 0 mm 2 m/S 761 mmHg 55%
    13:00 +24°C° 0 mm 2 m/S 760 mmHg 53%
    14:00 +24°C° 0 mm 2 m/S 760 mmHg 52%
    15:00 +21°C° 0 mm 2 m/S 760 mmHg 60%
    16:00 +20°C° 0 mm 2 m/S 760 mmHg 68%
    17:00 +19°C° 0 mm 1 m/S 760 mmHg 77%
    18:00 +18°C° 0 mm 1 m/S 760 mmHg 80%
    19:00 +16°C° 0 mm 1 m/S 760 mmHg 83%
    20:00 +15°C° 0 mm 1 m/S 760 mmHg 86%
    21:00 +15°C° 0 mm 1 m/S 760 mmHg 84%
    22:00 +15°C° 0 mm 1 m/S 760 mmHg 82%
    23:00 +14°C° 0 mm 0 m/S 760 mmHg 81%

    19 Oktober, Samstag

    Zeit Temperatur Niederschläge Wind Luftdruck Luftfeuchtigkeit
    00:00 +14°C° 0 mm 1 m/S 760 mmHg 80%
    01:00 +14°C° 0 mm 1 m/S 760 mmHg 79%
    02:00 +14°C° 0 mm 1 m/S 760 mmHg 77%
    03:00 +14°C° 0 mm 1 m/S 760 mmHg 77%
    04:00 +14°C° 0 mm 1 m/S 760 mmHg 77%
    05:00 +13°C° 0 mm 1 m/S 760 mmHg 77%
    06:00 +15°C° 0 mm 1 m/S 760 mmHg 73%
    07:00 +16°C° 0 mm 1 m/S 761 mmHg 69%
    08:00 +18°C° 0 mm 1 m/S 761 mmHg 66%
    09:00 +20°C° 0 mm 1 m/S 761 mmHg 59%
    10:00 +22°C° 0 mm 1 m/S 761 mmHg 53%
    11:00 +24°C° 0 mm 1 m/S 761 mmHg 47%
    12:00 +24°C° 0 mm 1 m/S 761 mmHg 47%
    13:00 +24°C° 0 mm 2 m/S 760 mmHg 47%
    14:00 +24°C° 0 mm 2 m/S 760 mmHg 48%
    15:00 +23°C° 0 mm 2 m/S 760 mmHg 56%
    16:00 +20°C° 0 mm 2 m/S 760 mmHg 65%
    17:00 +19°C° 0 mm 1 m/S 760 mmHg 73%
    18:00 +18°C° 0 mm 1 m/S 760 mmHg 77%
    19:00 +16°C° 0 mm 1 m/S 761 mmHg 80%
    20:00 +15°C° 0 mm 1 m/S 761 mmHg 83%
    21:00 +15°C° 0 mm 1 m/S 761 mmHg 81%
    22:00 +15°C° 0 mm 1 m/S 761 mmHg 79%
    23:00 +14°C° 0 mm 0 m/S 761 mmHg 77%

    20 Oktober, Sonntag

    Zeit Temperatur Niederschläge Wind Luftdruck Luftfeuchtigkeit
    00:00 +14°C° 0 mm 1 m/S 761 mmHg 75%
    01:00 +14°C° 0 mm 1 m/S 761 mmHg 72%
    02:00 +14°C° 0 mm 1 m/S 761 mmHg 70%
    03:00 +14°C° 0 mm 1 m/S 761 mmHg 70%
    04:00 +14°C° 0 mm 1 m/S 761 mmHg 69%
    05:00 +14°C° 0 mm 1 m/S 761 mmHg 69%
    06:00 +15°C° 0 mm 1 m/S 762 mmHg 67%
    07:00 +16°C° 0 mm 1 m/S 762 mmHg 65%
    08:00 +18°C° 0 mm 1 m/S 762 mmHg 63%
    09:00 +20°C° 0 mm 1 m/S 762 mmHg 59%
    10:00 +22°C° 0 mm 1 m/S 762 mmHg 55%
    11:00 +23°C° 0 mm 2 m/S 762 mmHg 52%
    12:00 +24°C° 0 mm 2 m/S 762 mmHg 52%
    13:00 +24°C° 0 mm 2 m/S 762 mmHg 53%
    14:00 +24°C° 0 mm 2 m/S 762 mmHg 53%
    15:00 +21°C° 0 mm 2 m/S 762 mmHg 62%
    16:00 +20°C° 0 mm 2 m/S 761 mmHg 71%
    17:00 +18°C° 0 mm 2 m/S 761 mmHg 79%
    18:00 +17°C° 0 mm 2 m/S 762 mmHg 83%
    19:00 +16°C° 0 mm 1 m/S 762 mmHg 86%
    20:00 +15°C° 0 mm 1 m/S 762 mmHg 89%
    21:00 +15°C° 0 mm 1 m/S 762 mmHg 90%
    22:00 +15°C° 0 mm 1 m/S 763 mmHg 90%
    23:00 +14°C° 0 mm 1 m/S 763 mmHg 91%

    21 Oktober, Montag

    Zeit Temperatur Niederschläge Wind Luftdruck Luftfeuchtigkeit
    00:00 +14°C° 0 mm 1 m/S 763 mmHg 92%
    01:00 +14°C° 0 mm 1 m/S 763 mmHg 93%
    02:00 +14°C° 0 mm 1 m/S 763 mmHg 94%
    03:00 +14°C° 0 mm 1 m/S 763 mmHg 94%
    04:00 +14°C° 0 mm 2 m/S 763 mmHg 94%
    05:00 +14°C° 0 mm 2 m/S 763 mmHg 95%
    06:00 +15°C° 0 mm 2 m/S 763 mmHg 93%
    07:00 +16°C° 0 mm 2 m/S 763 mmHg 91%
    08:00 +16°C° 0 mm 2 m/S 763 mmHg 90%
    09:00 +18°C° 0 mm 3 m/S 763 mmHg 83%
    10:00 +19°C° 0 mm 3 m/S 763 mmHg 77%
    11:00 +21°C° 0 mm 4 m/S 763 mmHg 70%
    12:00 +21°C° 0 mm 4 m/S 763 mmHg 66%
    13:00 +21°C° 0 mm 4 m/S 763 mmHg 62%
    14:00 +22°C° 0 mm 4 m/S 763 mmHg 58%
    15:00 +20°C° 0 mm 4 m/S 762 mmHg 65%
    16:00 +19°C° 0 mm 4 m/S 762 mmHg 72%
    17:00 +18°C° 0 mm 4 m/S 762 mmHg 79%
    18:00 +17°C° 0 mm 3 m/S 762 mmHg 83%
    19:00 +16°C° 0 mm 3 m/S 762 mmHg 88%
    20:00 +16°C° 0 mm 3 m/S 763 mmHg 92%
    21:00 +14°C° 0 mm 3 m/S 763 mmHg 93%
    22:00 +14°C° 0 mm 3 m/S 763 mmHg 93%
    23:00 +14°C° 0 mm 3 m/S 763 mmHg 93%
    Mehr zeigen